Cut Bank, MT

7:51 AM MST on November 15, 2019 (GMT -0700)
Cut Bank Municipal

Weather History for KCTB - October, 2019

Change the Weather History Date:

Wednesday, October 23, 2019

  Actual Average Record
Temperature  
Mean Temperature 31 °F 40 °F  
Max Temperature 37 °F 52 °F 81 °F (1965)
Min Temperature 25 °F 28 °F 6 °F (1919)
Degree Days  
Heating Degree Days 34 25  
Month to date heating degree days 671 474  
Since 1 July heating degree days 1195 1011  
Cooling Degree Days 0 0  
Month to date cooling degree days 0 0  
Year to date cooling degree days 106 161  
Moisture  
Dew Point 29 °F    
Average Humidity 87    
Maximum Humidity 96    
Minimum Humidity 73    
Precipitation  
Precipitation 0.17 in 0.01 in 0.38 in (1954)
Month to date precipitation 0.31 0.36  
Year to date precipitation 10.50 10.24  
Snow  
Snow - - - ()
Snow Depth T in    
Sea Level Pressure  
Sea Level Pressure 30.28 in    
Wind  
Wind Speed 12 mph ()    
Max Wind Speed 29 mph    
Max Gust Speed 36 mph    
Visibility 6.8 miles    
Events Rain , Snow    
T = Trace of Precipitation, MM = Missing Value Source: Averaged Metar Reports

Daily Weather History Graph

Daily Weather History Graph

Search for Another Location

Airport or City:

Astronomy

Oct. 23, 2019 Rise Set
Actual Time 8:01 AM MDT 6:25 PM MDT
Civil Twilight 7:29 AM MDT 6:57 PM MDT
Nautical Twilight 6:52 AM MDT 7:34 PM MDT
Astronomical Twilight 6:16 AM MDT 8:10 PM MDT
Moon 1:48 AM MDT (10/23) 4:49 PM MDT (10/23)
Length of Visible Light 11h 28m
Length of Day
10h 23m
Waning Crescent, 26% of the Moon is Illuminated
Oct 23
Waning Crescent
Oct 27
New
Nov 4
First Quarter
Nov 12
Full
Nov 19
Last Quarter

Hourly Weather History & Observations

Time (MDT) Temp. Windchill Dew Point Humidity Pressure Visibility Wind Dir Wind Speed Gust Speed Precip Events Conditions
12:41 AM 35.1 °F 24.5 °F 30.9 °F 85% 30.07 in 4.0 mi North 18.4 mph - 0.02 in Rain Rain
12:56 AM 34.0 °F 24.2 °F 32.0 °F 92% 30.10 in 3.0 mi North 15.0 mph - 0.05 in Rain Rain
1:09 AM 33.1 °F 23.9 °F 30.9 °F 92% 30.09 in 3.0 mi NNE 12.7 mph - 0.04 in Snow Light Snow
1:51 AM 33.8 °F 24.3 °F 30.2 °F 87% 30.11 in 9.0 mi NW 13.8 mph - 0.05 in Snow Light Snow
1:56 AM 33.1 °F 23.9 °F 30.9 °F 92% 30.14 in 9.0 mi WNW 12.7 mph - 0.05 in Snow Light Snow
2:04 AM 33.1 °F 24.4 °F 30.9 °F 92% 30.12 in 9.0 mi WNW 11.5 mph - 0.00 in   Overcast
2:37 AM 32.0 °F 21.6 °F 30.0 °F 92% 30.14 in 1.8 mi WNW 15.0 mph - 0.01 in Snow Light Snow
2:46 AM 32.0 °F 22.5 °F 30.0 °F 92% 30.14 in 1.5 mi WNW 12.7 mph - 0.01 in Snow Light Snow
2:56 AM 32.0 °F 22.5 °F 30.9 °F 96% 30.19 in 2.5 mi WNW 12.7 mph - 0.02 in Snow Light Snow
3:13 AM 32.0 °F 22.1 °F 30.0 °F 92% 30.15 in 3.0 mi WNW 13.8 mph - 0.01 in Snow Light Snow
3:40 AM 33.1 °F 23.9 °F 30.9 °F 92% 30.15 in 2.5 mi NW 12.7 mph - 0.02 in Snow Light Snow
3:53 AM 33.8 °F 24.8 °F 30.2 °F 87% 30.15 in 5.0 mi WNW 12.7 mph - 0.02 in Snow Light Snow
3:56 AM 33.1 °F 24.4 °F 30.9 °F 92% 30.19 in 6.0 mi WNW 11.5 mph - 0.02 in Snow Light Snow
4:29 AM 33.1 °F 24.4 °F 30.9 °F 92% 30.16 in 2.0 mi NNW 11.5 mph - 0.01 in Snow Light Snow
4:39 AM 33.1 °F 23.9 °F 30.9 °F 92% 30.16 in 2.5 mi NNW 12.7 mph - 0.01 in Snow Light Snow
4:56 AM 32.0 °F 21.6 °F 30.9 °F 96% 30.20 in 2.5 mi NNW 15.0 mph - 0.01 in Snow Light Snow
5:56 AM 32.0 °F 22.1 °F 30.9 °F 96% 30.24 in 1.8 mi NNW 13.8 mph - 0.01 in Snow Light Snow
6:22 AM 32.0 °F 19.2 °F 30.0 °F 92% 30.21 in 2.5 mi North 23.0 mph 32.2 mph 0.01 in Snow Light Snow
6:29 AM 32.0 °F 19.8 °F 28.9 °F 88% 30.22 in 6.0 mi North 20.7 mph - 0.01 in Snow Light Snow
6:38 AM 32.0 °F 19.5 °F 28.9 °F 88% 30.22 in 7.0 mi North 21.9 mph 32.2 mph 0.01 in Snow Light Snow
6:56 AM 32.0 °F 20.8 °F 28.9 °F 88% 30.28 in 10.0 mi North 17.3 mph - 0.01 in   Overcast
7:37 AM 32.0 °F 23.0 °F 28.9 °F 88% 30.23 in 8.0 mi North 11.5 mph - 0.00 in   Overcast
7:56 AM 32.0 °F 22.1 °F 28.9 °F 88% 30.30 in 10.0 mi North 13.8 mph - 0.00 in   Overcast
8:56 AM 32.0 °F 25.6 °F 28.9 °F 88% 30.34 in 10.0 mi NW 6.9 mph - N/A   Overcast
9:56 AM 32.0 °F 24.2 °F 28.0 °F 85% 30.37 in 5.0 mi West 9.2 mph - 0.00 in Snow Light Snow
10:56 AM 32.0 °F 24.8 °F 28.0 °F 85% 30.40 in 10.0 mi West 8.1 mph - 0.00 in   Overcast
11:56 AM 34.0 °F 25.0 °F 28.0 °F 79% 30.41 in 10.0 mi NW 12.7 mph - N/A   Overcast
12:56 PM 35.1 °F 26.4 °F 28.0 °F 76% 30.43 in 10.0 mi NNW 12.7 mph - N/A   Overcast
2:56 PM 35.1 °F 26.9 °F 28.9 °F 78% 30.44 in 10.0 mi West 11.5 mph - N/A   Overcast
3:56 PM 36.0 °F 28.0 °F 28.9 °F 76% 30.44 in 10.0 mi West 11.5 mph - N/A   Mostly Cloudy
4:56 PM 36.0 °F 29.0 °F 28.0 °F 73% 30.46 in 10.0 mi West 9.2 mph - N/A   Partly Cloudy
5:56 PM 30.9 °F 22.8 °F 26.1 °F 82% 30.47 in 10.0 mi West 9.2 mph - N/A   Partly Cloudy
6:56 PM 30.0 °F 21.7 °F 25.0 °F 82% 30.50 in 10.0 mi West 9.2 mph - N/A   Mostly Cloudy
7:56 PM 28.9 °F 19.8 °F 24.1 °F 82% 30.51 in 10.0 mi WNW 10.4 mph - N/A   Mostly Cloudy
8:56 PM 28.9 °F 21.9 °F 25.0 °F 85% 30.50 in 10.0 mi West 6.9 mph - N/A   Partly Cloudy
9:56 PM 27.0 °F 20.5 °F 24.1 °F 89% 30.50 in 10.0 mi WNW 5.8 mph - N/A   Clear
10:56 PM 26.1 °F - 23.0 °F 88% 30.49 in 10.0 mi Calm Calm - N/A   Clear
11:56 PM 27.0 °F 18.7 °F 21.9 °F 81% 30.47 in 10.0 mi West 8.1 mph - N/A   Clear